TimeMST,TemperatureF,Dew PointF,Humidity,Sea Level PressureIn,VisibilityMPH,Wind Direction,Wind SpeedMPH,Gust SpeedMPH,PrecipitationIn,Events,Conditions,WindDirDegrees,DateUTC
12:15 AM,35.6,14.0,41,30.05,10.0,North,10.4,-,N/A,,Clear,350,2012-02-01 07:15:00
12:35 AM,33.8,14.0,44,30.05,10.0,North,9.2,16.1,N/A,,Clear,360,2012-02-01 07:35:00
12:55 AM,35.6,14.0,41,30.05,10.0,North,12.7,18.4,N/A,,Clear,360,2012-02-01 07:55:00
1:15 AM,33.8,14.0,44,30.05,10.0,North,8.1,-,N/A,,Clear,360,2012-02-01 08:15:00
1:35 AM,35.6,14.0,41,30.06,10.0,NNW,5.8,16.1,N/A,,Clear,340,2012-02-01 08:35:00
1:55 AM,35.6,12.2,38,30.06,10.0,North,8.1,16.1,N/A,,Clear,360,2012-02-01 08:55:00
2:15 AM,35.6,12.2,38,30.06,10.0,NNW,12.7,19.6,N/A,,Clear,340,2012-02-01 09:15:00
2:35 AM,35.6,12.2,38,30.06,10.0,North,17.3,26.5,N/A,,Clear,350,2012-02-01 09:35:00
2:56 AM,35.6,12.2,38,30.06,10.0,North,13.8,24.2,N/A,,Clear,350,2012-02-01 09:56:00
3:15 AM,35.6,12.2,38,30.06,10.0,North,9.2,17.3,N/A,,Clear,350,2012-02-01 10:15:00
3:35 AM,33.8,12.2,41,30.06,10.0,North,8.1,-,N/A,,Clear,350,2012-02-01 10:35:00
3:55 AM,33.8,12.2,41,30.06,10.0,NNE,10.4,17.3,N/A,,Clear,30,2012-02-01 10:55:00
4:15 AM,35.6,12.2,38,30.07,10.0,North,15.0,21.9,N/A,,Clear,350,2012-02-01 11:15:00
4:35 AM,33.8,12.2,41,30.07,10.0,North,8.1,-,N/A,,Clear,360,2012-02-01 11:35:00
5:15 AM,33.8,12.2,41,30.07,10.0,NW,9.2,-,N/A,,Clear,320,2012-02-01 12:15:00
5:35 AM,33.8,12.2,41,30.07,10.0,NW,8.1,-,N/A,,Clear,320,2012-02-01 12:35:00
5:55 AM,35.6,12.2,38,30.07,10.0,NW,8.1,-,N/A,,Clear,320,2012-02-01 12:55:00
6:15 AM,33.8,12.2,41,30.07,10.0,West,9.2,-,N/A,,Clear,280,2012-02-01 13:15:00
6:35 AM,33.8,12.2,41,30.07,10.0,WNW,11.5,-,N/A,,Clear,290,2012-02-01 13:35:00
6:55 AM,33.8,12.2,41,30.07,10.0,WNW,10.4,-,N/A,,Clear,290,2012-02-01 13:55:00
7:15 AM,33.8,12.2,41,30.05,10.0,WNW,10.4,-,N/A,,Clear,290,2012-02-01 14:15:00
7:35 AM,33.8,12.2,41,30.05,10.0,West,12.7,-,N/A,,Clear,280,2012-02-01 14:35:00
7:55 AM,33.8,10.4,38,30.04,10.0,WSW,15.0,-,N/A,,Clear,240,2012-02-01 14:55:00
8:15 AM,33.8,14.0,44,30.04,10.0,WNW,15.0,-,N/A,,Partly Cloudy,290,2012-02-01 15:15:00
8:35 AM,33.8,12.2,41,30.04,10.0,WNW,13.8,-,N/A,,Partly Cloudy,300,2012-02-01 15:35:00
8:55 AM,33.8,12.2,41,30.03,10.0,WNW,16.1,-,N/A,,Clear,300,2012-02-01 15:55:00
9:15 AM,33.8,14.0,44,30.03,10.0,West,11.5,-,N/A,,Clear,270,2012-02-01 16:15:00
9:35 AM,33.8,12.2,41,30.03,10.0,West,12.7,-,N/A,,Clear,270,2012-02-01 16:35:00
9:55 AM,35.6,12.2,38,30.03,10.0,West,11.5,-,N/A,,Clear,260,2012-02-01 16:55:00
10:15 AM,35.6,12.2,38,30.02,10.0,WSW,11.5,-,N/A,,Clear,250,2012-02-01 17:15:00
10:35 AM,35.6,12.2,38,30.02,10.0,West,16.1,-,N/A,,Clear,270,2012-02-01 17:35:00
11:35 AM,41.0,10.4,29,30.01,10.0,Calm,Calm,-,N/A,,Clear,0,2012-02-01 18:35:00
11:55 AM,41.0,10.4,29,30.01,10.0,Calm,Calm,-,N/A,,Clear,0,2012-02-01 18:55:00
12:15 PM,41.0,10.4,29,30.00,10.0,ESE,8.1,-,N/A,,Clear,120,2012-02-01 19:15:00
12:35 PM,42.8,10.4,27,30.00,10.0,East,11.5,-,N/A,,Clear,80,2012-02-01 19:35:00
12:55 PM,42.8,12.2,29,29.99,10.0,East,6.9,-,N/A,,Clear,90,2012-02-01 19:55:00
1:15 PM,42.8,10.4,27,29.98,10.0,East,6.9,-,N/A,,Clear,80,2012-02-01 20:15:00
1:35 PM,42.8,10.4,27,29.97,10.0,NE,9.2,-,N/A,,Clear,40,2012-02-01 20:35:00
1:55 PM,42.8,10.4,27,29.97,10.0,ENE,6.9,-,N/A,,Clear,70,2012-02-01 20:55:00
2:15 PM,42.8,12.2,29,29.97,10.0,East,10.4,-,N/A,,Clear,80,2012-02-01 21:15:00
2:35 PM,39.2,12.2,33,29.97,10.0,ESE,12.7,-,N/A,,Clear,110,2012-02-01 21:35:00
3:15 PM,39.2,15.8,39,29.97,10.0,East,12.7,-,N/A,,Clear,80,2012-02-01 22:15:00
3:35 PM,39.2,15.8,39,29.96,10.0,East,10.4,-,N/A,,Clear,80,2012-02-01 22:35:00
3:55 PM,39.2,15.8,39,29.97,10.0,East,9.2,-,N/A,,Clear,100,2012-02-01 22:55:00
4:15 PM,39.2,15.8,39,29.97,10.0,ESE,4.6,-,N/A,,Clear,110,2012-02-01 23:15:00
4:35 PM,39.2,15.8,39,29.97,10.0,East,5.8,-,N/A,,Clear,90,2012-02-01 23:35:00
4:55 PM,37.4,15.8,41,29.97,10.0,ESE,4.6,-,N/A,,Partly Cloudy,110,2012-02-01 23:55:00
5:15 PM,35.6,15.8,44,29.97,10.0,ESE,4.6,-,N/A,,Clear,120,2012-02-02 00:15:00
5:55 PM,32.0,15.8,51,29.98,10.0,Calm,Calm,-,N/A,,Mostly Cloudy,0,2012-02-02 00:55:00
6:15 PM,32.0,15.8,51,29.98,10.0,Calm,Calm,-,N/A,,Mostly Cloudy,0,2012-02-02 01:15:00
6:35 PM,30.2,15.8,55,29.98,10.0,Calm,Calm,-,N/A,,Partly Cloudy,0,2012-02-02 01:35:00
6:55 PM,28.4,15.8,59,29.98,10.0,Calm,Calm,-,N/A,,Clear,0,2012-02-02 01:55:00
7:15 PM,26.6,15.8,64,29.98,10.0,SSE,4.6,-,N/A,,Scattered Clouds,150,2012-02-02 02:15:00
7:35 PM,28.4,17.6,64,29.99,10.0,Calm,Calm,-,N/A,,Overcast,0,2012-02-02 02:35:00
7:55 PM,28.4,17.6,64,29.98,10.0,Calm,Calm,-,N/A,,Overcast,0,2012-02-02 02:55:00
8:15 PM,30.2,17.6,60,29.98,10.0,South,4.6,-,N/A,,Overcast,180,2012-02-02 03:15:00
8:35 PM,28.4,15.8,59,29.99,10.0,South,4.6,-,N/A,,Scattered Clouds,170,2012-02-02 03:35:00
8:55 PM,30.2,17.6,60,29.99,10.0,South,6.9,-,N/A,,Clear,170,2012-02-02 03:55:00
9:15 PM,32.0,17.6,55,29.99,10.0,South,4.6,-,N/A,,Clear,180,2012-02-02 04:15:00
9:35 PM,33.8,17.6,52,29.99,10.0,SSW,4.6,-,N/A,,Clear,210,2012-02-02 04:35:00
9:55 PM,30.2,17.6,60,29.98,10.0,West,4.6,-,N/A,,Clear,270,2012-02-02 04:55:00
10:35 PM,28.4,17.6,64,29.99,10.0,NE,6.9,-,N/A,,Clear,50,2012-02-02 05:35:00
10:55 PM,30.2,19.4,64,29.99,10.0,ENE,4.6,-,N/A,,Clear,70,2012-02-02 05:55:00
11:15 PM,28.4,19.4,69,30.00,10.0,SE,4.6,-,N/A,,Scattered Clouds,130,2012-02-02 06:15:00
11:35 PM,28.4,19.4,69,30.01,10.0,North,5.8,-,N/A,,Overcast,360,2012-02-02 06:35:00
11:55 PM,28.4,17.6,64,30.01,10.0,Calm,Calm,-,N/A,,Mostly Cloudy,0,2012-02-02 06:55:00